Louisville Bowman, KY

8:47 PM EDT on September 19, 2017 (GMT -0400)
Bowman

Weather History for KLOU - May, 2012

Change the Weather History Date:

Tuesday, May 1, 2012

  Actual Average Record
Temperature  
Mean Temperature 74 °F 62 °F  
Max Temperature 85 °F 72 °F 92 °F (1951)
Min Temperature 62 °F 52 °F 31 °F (1963)
Degree Days  
Heating Degree Days 0 5  
Month to date heating degree days 0 5  
Since 1 July heating degree days 3181 4196  
Cooling Degree Days 9 1  
Month to date cooling degree days 9 1  
Year to date cooling degree days 117 35  
Growing Degree Days 23 (Base 50)    
Moisture  
Dew Point 64 °F    
Average Humidity 76    
Maximum Humidity 93    
Minimum Humidity 58    
Precipitation  
Precipitation 0.01 in 0.19 in 2.34 in (1983)
Month to date precipitation 0.01 0.19  
Year to date precipitation 14.71 14.99  
Sea Level Pressure  
Sea Level Pressure 30.01 in    
Wind  
Wind Speed 5 mph (South)    
Max Wind Speed 18 mph    
Max Gust Speed 29 mph    
Visibility 6 miles    
Events Fog , Rain , Thunderstorm    
T = Trace of Precipitation, MM = Missing Value Source: NWS Daily Summary

Daily Weather History Graph

Daily Weather History Graph

Search for Another Location

Airport or City:

Trip Planner

Search our weather history database for the weather conditions in past years. The results will help you decide how hot, cold, wet, or windy it might be!

Date:

Astronomy

May. 01, 2012 Rise Set
Actual Time 6:45 AM EDT 8:34 PM EDT
Civil Twilight 6:17 AM EDT 9:02 PM EDT
Nautical Twilight 5:42 AM EDT 9:37 PM EDT
Astronomical Twilight 5:05 AM EDT 10:14 PM EDT
Moon 3:41 PM EDT (5/1) 3:37 AM EDT (5/1)
Length of Visible Light 14h 45m
Length of Day
13h 48m
Waxing Gibbous, 73% of the Moon is Illuminated
May 1
Waxing Gibbous
May 5
Full
May 12
Last Quarter
May 20
New
May 28
First Quarter

Hourly Weather History & Observations

Time (EDT) Temp. Heat Index Dew Point Humidity Pressure Visibility Wind Dir Wind Speed Gust Speed Precip Events Conditions
12:53 AM 68.0 °F - 64.9 °F 90% 29.99 in 6.0 mi WSW 3.5 mph - N/A   Mostly Cloudy
1:02 AM 68.0 °F - 64.4 °F 88% 30.01 in 7.0 mi WSW 3.5 mph - N/A   Mostly Cloudy
1:40 AM 66.2 °F - 64.4 °F 94% 30.01 in 4.0 mi SSW 3.5 mph - N/A   Scattered Clouds
1:53 AM 66.2 °F - 64.4 °F 94% 30.01 in 5.0 mi Calm Calm - N/A   Partly Cloudy
2:32 AM 66.2 °F - 64.4 °F 94% 30.02 in 2.0 mi Calm Calm - N/A   Clear
2:53 AM 66.0 °F - 64.0 °F 93% 30.01 in 4.0 mi Calm Calm - 0.01 in   Clear
3:07 AM 66.2 °F - 64.4 °F 94% 30.02 in 2.0 mi Calm Calm - N/A   Clear
3:15 AM 66.2 °F - 64.4 °F 94% 30.02 in 1.0 mi Calm Calm - N/A   Mist
3:22 AM 64.4 °F - 62.6 °F 94% 30.02 in 0.2 mi Calm Calm - N/A Fog Fog
3:31 AM 64.4 °F - 62.6 °F 94% 30.03 in 1.5 mi Calm Calm - N/A   Scattered Clouds
3:53 AM 64.9 °F - 63.0 °F 93% 30.01 in 1.5 mi Calm Calm - N/A   Partly Cloudy
4:15 AM 66.2 °F - 64.4 °F 94% 30.02 in 2.5 mi Calm Calm - N/A   Partly Cloudy
4:17 AM 64.4 °F - 62.6 °F 94% 30.02 in 1.0 mi Calm Calm - N/A   Partly Cloudy
4:23 AM 62.6 °F - 60.8 °F 94% 30.03 in 0.2 mi SSW 3.5 mph - N/A Fog Fog
4:33 AM 66.2 °F - 64.4 °F 94% 30.02 in 2.0 mi Calm Calm - N/A   Mostly Cloudy
4:41 AM 66.2 °F - 64.4 °F 94% 30.03 in 3.0 mi Calm Calm - N/A   Overcast
4:53 AM 66.0 °F - 64.0 °F 93% 30.01 in 4.0 mi Calm Calm - N/A   Overcast
5:46 AM 66.2 °F - 64.4 °F 94% 30.05 in 3.0 mi Calm Calm - N/A   Overcast
5:53 AM 66.0 °F - 64.0 °F 93% 30.03 in 4.0 mi Calm Calm - N/A   Overcast
6:53 AM 66.2 °F - 62.6 °F 88% 30.05 in 4.0 mi Calm Calm - N/A   Overcast
7:08 AM 66.2 °F - 62.6 °F 88% 30.05 in 2.5 mi Calm Calm - N/A   Overcast
7:25 AM 66.2 °F - 62.6 °F 88% 30.06 in 3.0 mi SSE 3.5 mph - N/A   Mostly Cloudy
7:42 AM 66.2 °F - 62.6 °F 88% 30.06 in 2.5 mi Calm Calm - N/A   Mostly Cloudy
7:53 AM 66.0 °F - 63.0 °F 90% 30.06 in 2.5 mi Calm Calm - N/A   Mostly Cloudy
8:00 AM 66.2 °F - 62.6 °F 88% 30.07 in 2.5 mi SSE 3.5 mph - N/A   Partly Cloudy
8:07 AM 66.2 °F - 62.6 °F 88% 30.07 in 2.5 mi SSE 3.5 mph - N/A   Mostly Cloudy
8:29 AM 66.2 °F - 62.6 °F 88% 30.07 in 2.5 mi SSE 3.5 mph - N/A   Mostly Cloudy
8:53 AM 66.2 °F - 64.4 °F 94% 30.07 in 2.5 mi SE 3.5 mph - N/A   Overcast
9:00 AM 66.2 °F - 64.4 °F 94% 30.07 in 3.0 mi SSE 3.5 mph - N/A   Overcast
9:53 AM 70.0 °F - 66.0 °F 87% 30.05 in 6.0 mi SSE 5.8 mph - N/A   Mostly Cloudy
10:07 AM 71.6 °F - 66.2 °F 83% 30.05 in 7.0 mi SE 5.8 mph - N/A   Mostly Cloudy
10:22 AM 71.6 °F - 66.2 °F 83% 30.05 in 8.0 mi SSE 6.9 mph - N/A   Mostly Cloudy
10:39 AM 73.4 °F - 66.2 °F 78% 30.05 in 9.0 mi SSE 5.8 mph - N/A   Mostly Cloudy
10:53 AM 73.4 °F - 66.2 °F 78% 30.05 in 10.0 mi South 5.8 mph - N/A   Mostly Cloudy
11:12 AM 73.4 °F - 66.2 °F 78% 30.05 in 10.0 mi South 6.9 mph - N/A   Overcast
11:53 AM 75.9 °F - 66.9 °F 74% 30.03 in 10.0 mi South 8.1 mph - 0.00 in   Mostly Cloudy
12:53 PM 78.1 °F - 66.9 °F 68% 30.02 in 10.0 mi South 8.1 mph - N/A   Mostly Cloudy
1:53 PM 81.0 °F 83.8 °F 68.0 °F 65% 29.99 in 10.0 mi SSW 11.5 mph - N/A   Clear
2:53 PM 82.9 °F 85.4 °F 66.9 °F 58% 29.96 in 10.0 mi Variable 4.6 mph - N/A   Scattered Clouds
3:41 PM 84.2 °F 86.6 °F 66.2 °F 55% 29.94 in 10.0 mi SSW 13.8 mph 21.9 mph 0.00 in Thunderstorm Scattered Clouds
3:53 PM 84.2 °F 85.6 °F 64.4 °F 51% 29.94 in 10.0 mi SSW 13.8 mph 21.9 mph N/A Thunderstorm Partly Cloudy
4:04 PM 82.4 °F 84.6 °F 66.2 °F 58% 29.95 in 9.0 mi South 11.5 mph 18.4 mph 0.00 in Rain Light Rain
4:53 PM 81.0 °F 83.3 °F 66.9 °F 62% 29.93 in 10.0 mi SSW 11.5 mph 17.3 mph 0.00 in Rain Light Rain
5:53 PM 79.0 °F - 62.1 °F 56% 29.91 in 10.0 mi South 9.2 mph - 0.00 in   Clear
6:53 PM 78.1 °F - 64.0 °F 62% 29.90 in 10.0 mi Variable 4.6 mph - N/A   Clear
7:53 PM 77.0 °F - 64.0 °F 64% 29.90 in 10.0 mi South 3.5 mph - N/A   Clear
8:53 PM 75.0 °F - 64.9 °F 71% 29.92 in 10.0 mi South 3.5 mph - N/A   Clear
9:53 PM 75.0 °F - 66.0 °F 73% 29.92 in 10.0 mi South 3.5 mph - N/A   Clear
10:53 PM 75.0 °F - 66.0 °F 73% 29.93 in 10.0 mi South 3.5 mph - N/A   Clear
11:53 PM 75.0 °F - 64.0 °F 69% 29.93 in 10.0 mi SSE 3.5 mph - N/A   Clear